When you browse on this site, cookies collect data to enhance your experience and personalize the content and advertising you see.
Visit our Privacy Policy to learn more. By continuing to use the site, you agree to this use of cookies and data.
  • Em Portugal
  • Lista de países
  • Para 7 dias
  • Temperatura da água
  • Mapas de satélite
  • Mapa do tempo
  • Widgets de tempo
  • user-avatar
    Iniciar Sessão

    Previsão horária em Emona

    Hoje, 15 Dezembro, Sábado

    Tempo Temperatura Precipitação Vento Pressão Humidade
    00:00 +5°C° 0.1 mm 3 m/s 764 mmHg 93%
    01:00 +7°C° 0.1 mm 3 m/s 764 mmHg 93%
    02:00 +7°C° 0 mm 3 m/s 764 mmHg 93%
    03:00 +7°C° 0.2 mm 3 m/s 764 mmHg 94%
    04:00 +7°C° 0.2 mm 3 m/s 764 mmHg 95%
    05:00 +7°C° 0.2 mm 2 m/s 763 mmHg 95%
    06:00 +8°C° 0.1 mm 2 m/s 763 mmHg 96%
    07:00 +8°C° 0.1 mm 2 m/s 763 mmHg 96%
    08:00 +8°C° 0 mm 2 m/s 763 mmHg 96%
    09:00 +9°C° 0 mm 2 m/s 763 mmHg 95%
    10:00 +10°C° 0 mm 2 m/s 763 mmHg 93%
    11:00 +10°C° 0 mm 3 m/s 763 mmHg 91%
    12:00 +11°C° 0.1 mm 3 m/s 763 mmHg 90%
    13:00 +11°C° 0.1 mm 3 m/s 763 mmHg 89%
    14:00 +12°C° 0.1 mm 3 m/s 763 mmHg 88%
    15:00 +12°C° 0.1 mm 3 m/s 763 mmHg 90%
    16:00 +11°C° 0.1 mm 3 m/s 763 mmHg 92%
    17:00 +11°C° 0.1 mm 3 m/s 762 mmHg 94%
    18:00 +11°C° 0.4 mm 3 m/s 762 mmHg 94%
    19:00 +11°C° 0.4 mm 3 m/s 762 mmHg 94%
    20:00 +11°C° 0.4 mm 3 m/s 762 mmHg 94%
    21:00 +11°C° 0.2 mm 3 m/s 762 mmHg 93%
    22:00 +11°C° 0.2 mm 3 m/s 762 mmHg 93%
    23:00 +11°C° 0.2 mm 3 m/s 762 mmHg 92%

    Amanhã, 16 Dezembro, Domingo

    Tempo Temperatura Precipitação Vento Pressão Humidade
    00:00 +11°C° 0.1 mm 3 m/s 762 mmHg 91%
    01:00 +10°C° 0.1 mm 3 m/s 762 mmHg 91%
    02:00 +10°C° 0.1 mm 3 m/s 762 mmHg 90%
    03:00 +10°C° 0.1 mm 3 m/s 761 mmHg 89%
    04:00 +10°C° 0.1 mm 3 m/s 761 mmHg 89%
    05:00 +10°C° 0.1 mm 3 m/s 761 mmHg 89%
    06:00 +10°C° 0 mm 3 m/s 761 mmHg 89%
    07:00 +10°C° 0 mm 3 m/s 761 mmHg 89%
    08:00 +10°C° 0 mm 3 m/s 761 mmHg 89%
    09:00 +11°C° 0.1 mm 3 m/s 761 mmHg 88%
    10:00 +11°C° 0.1 mm 3 m/s 761 mmHg 87%
    11:00 +12°C° 0.1 mm 3 m/s 761 mmHg 87%
    12:00 +12°C° 0.2 mm 3 m/s 761 mmHg 87%
    13:00 +12°C° 0.2 mm 3 m/s 760 mmHg 86%
    14:00 +12°C° 0.2 mm 3 m/s 760 mmHg 86%
    15:00 +12°C° 0.1 mm 3 m/s 760 mmHg 89%
    16:00 +11°C° 0.1 mm 3 m/s 760 mmHg 92%
    17:00 +11°C° 0.1 mm 3 m/s 760 mmHg 94%
    18:00 +10°C° 0.1 mm 3 m/s 761 mmHg 95%
    19:00 +10°C° 0.1 mm 3 m/s 761 mmHg 95%
    20:00 +10°C° 0.1 mm 2 m/s 761 mmHg 96%
    21:00 +10°C° 0.1 mm 3 m/s 762 mmHg 96%
    22:00 +10°C° 0.1 mm 3 m/s 762 mmHg 95%
    23:00 +9°C° 0.1 mm 3 m/s 762 mmHg 95%

    Depois de amanhã, 17 Dezembro, Segunda-feira

    Tempo Temperatura Precipitação Vento Pressão Humidade
    00:00 +9°C° 0.1 mm 3 m/s 762 mmHg 94%
    01:00 +9°C° 0.1 mm 3 m/s 762 mmHg 92%
    02:00 +9°C° 0.1 mm 3 m/s 762 mmHg 90%
    03:00 +7°C° 0.1 mm 4 m/s 762 mmHg 90%
    04:00 +7°C° 0.1 mm 4 m/s 762 mmHg 89%
    05:00 +7°C° 0.1 mm 4 m/s 762 mmHg 89%
    06:00 +7°C° 0.1 mm 4 m/s 762 mmHg 89%
    07:00 +7°C° 0.1 mm 4 m/s 763 mmHg 89%
    08:00 +6°C° 0.1 mm 4 m/s 763 mmHg 89%
    09:00 +7°C° 0.1 mm 4 m/s 763 mmHg 88%
    10:00 +7°C° 0.1 mm 4 m/s 763 mmHg 88%
    11:00 +8°C° 0.1 mm 3 m/s 763 mmHg 87%
    12:00 +8°C° 0.1 mm 3 m/s 763 mmHg 87%
    13:00 +9°C° 0.1 mm 3 m/s 763 mmHg 87%
    14:00 +8°C° 0.1 mm 4 m/s 762 mmHg 88%
    15:00 +8°C° 0.1 mm 4 m/s 762 mmHg 89%
    16:00 +7°C° 0.1 mm 4 m/s 762 mmHg 91%
    17:00 +7°C° 0.1 mm 4 m/s 762 mmHg 92%
    18:00 +7°C° 0.1 mm 4 m/s 763 mmHg 93%
    19:00 +8°C° 0.1 mm 4 m/s 763 mmHg 94%
    20:00 +8°C° 0.1 mm 4 m/s 763 mmHg 94%
    21:00 +8°C° 0.1 mm 4 m/s 763 mmHg 95%
    22:00 +8°C° 0.1 mm 4 m/s 763 mmHg 95%
    23:00 +8°C° 0.1 mm 4 m/s 763 mmHg 95%

    18 Dezembro, Terça-feira

    Tempo Temperatura Precipitação Vento Pressão Humidade
    00:00 +8°C° 0.2 mm 4 m/s 763 mmHg 95%
    01:00 +8°C° 0.2 mm 4 m/s 763 mmHg 95%
    02:00 +8°C° 0.2 mm 4 m/s 763 mmHg 95%
    03:00 +8°C° 0.2 mm 5 m/s 763 mmHg 95%
    04:00 +8°C° 0.2 mm 5 m/s 763 mmHg 94%
    05:00 +8°C° 0.2 mm 6 m/s 763 mmHg 94%
    06:00 +7°C° 0.4 mm 6 m/s 763 mmHg 93%
    07:00 +7°C° 0.4 mm 6 m/s 763 mmHg 92%
    08:00 +7°C° 0.4 mm 6 m/s 764 mmHg 91%
    09:00 +6°C° 0.3 mm 7 m/s 764 mmHg 90%
    10:00 +6°C° 0.3 mm 7 m/s 764 mmHg 89%
    11:00 +6°C° 0.3 mm 7 m/s 764 mmHg 88%
    12:00 +5°C° 0.4 mm 8 m/s 764 mmHg 87%
    13:00 +5°C° 0.4 mm 8 m/s 764 mmHg 86%
    14:00 +5°C° 0.4 mm 8 m/s 764 mmHg 85%
    15:00 +4°C° 0.6 mm 8 m/s 764 mmHg 85%
    16:00 +2°C° 0.6 mm 8 m/s 765 mmHg 86%
    17:00 +2°C° 0.6 mm 8 m/s 765 mmHg 86%
    18:00 +1°C° 0.2 mm 8 m/s 765 mmHg 86%
    19:00 +1°C° 0.2 mm 8 m/s 765 mmHg 86%
    20:00 +1°C° 0.2 mm 8 m/s 766 mmHg 86%
    21:00 +1°C° 0.1 mm 8 m/s 766 mmHg 86%
    22:00 0°C° 0.1 mm 8 m/s 766 mmHg 86%
    23:00 0°C° 0.1 mm 8 m/s 766 mmHg 86%

    19 Dezembro, Quarta-feira

    Tempo Temperatura Precipitação Vento Pressão Humidade
    00:00 0°C° 0.1 mm 8 m/s 766 mmHg 86%
    01:00 -1°C° 0.1 mm 8 m/s 766 mmHg 86%
    02:00 -1°C° 0.1 mm 8 m/s 766 mmHg 86%
    03:00 -1°C° 0.1 mm 8 m/s 766 mmHg 86%
    04:00 -1°C° 0.1 mm 8 m/s 765 mmHg 85%
    05:00 -2°C° 0.1 mm 8 m/s 765 mmHg 85%
    06:00 -2°C° 0.1 mm 8 m/s 766 mmHg 85%
    07:00 -2°C° 0.1 mm 7 m/s 766 mmHg 84%
    08:00 -2°C° 0.1 mm 7 m/s 766 mmHg 84%
    09:00 -2°C° 0.2 mm 7 m/s 766 mmHg 82%
    10:00 -2°C° 0.2 mm 7 m/s 767 mmHg 80%
    11:00 -1°C° 0.2 mm 7 m/s 767 mmHg 78%
    12:00 -1°C° 0.1 mm 7 m/s 766 mmHg 77%
    13:00 -1°C° 0.1 mm 7 m/s 766 mmHg 77%
    14:00 -1°C° 0.1 mm 7 m/s 766 mmHg 76%
    15:00 -1°C° 0.2 mm 7 m/s 766 mmHg 78%
    16:00 -2°C° 0.2 mm 6 m/s 766 mmHg 80%
    17:00 -2°C° 0.2 mm 6 m/s 767 mmHg 83%
    18:00 -3°C° 0.2 mm 6 m/s 767 mmHg 83%
    19:00 -3°C° 0.2 mm 6 m/s 767 mmHg 84%
    20:00 -3°C° 0.2 mm 6 m/s 767 mmHg 85%
    21:00 -3°C° 0.1 mm 6 m/s 768 mmHg 85%
    22:00 -4°C° 0.1 mm 6 m/s 768 mmHg 84%
    23:00 -4°C° 0.1 mm 5 m/s 768 mmHg 84%

    20 Dezembro, Quinta-feira

    Tempo Temperatura Precipitação Vento Pressão Humidade
    00:00 -4°C° 0 mm 5 m/s 768 mmHg 84%
    01:00 -4°C° 0 mm 5 m/s 768 mmHg 84%
    02:00 -4°C° 0 mm 5 m/s 768 mmHg 83%
    03:00 -4°C° 0 mm 5 m/s 769 mmHg 83%
    04:00 -4°C° 0 mm 5 m/s 769 mmHg 83%
    05:00 -5°C° 0 mm 5 m/s 769 mmHg 83%
    06:00 -5°C° 0 mm 5 m/s 770 mmHg 82%
    07:00 -4°C° 0 mm 4 m/s 770 mmHg 82%
    08:00 -3°C° 0 mm 4 m/s 770 mmHg 81%
    09:00 -3°C° 0 mm 4 m/s 771 mmHg 78%
    10:00 -2°C° 0 mm 4 m/s 771 mmHg 74%
    11:00 -1°C° 0 mm 4 m/s 771 mmHg 71%
    12:00 0°C° 0 mm 4 m/s 771 mmHg 70%
    13:00 0°C° 0 mm 4 m/s 771 mmHg 68%
    14:00 +1°C° 0 mm 4 m/s 771 mmHg 67%
    15:00 0°C° 0 mm 4 m/s 771 mmHg 72%
    16:00 0°C° 0 mm 3 m/s 771 mmHg 76%
    17:00 -1°C° 0 mm 3 m/s 771 mmHg 81%
    18:00 -1°C° 0 mm 3 m/s 772 mmHg 82%
    19:00 -1°C° 0 mm 3 m/s 772 mmHg 83%
    20:00 -2°C° 0 mm 2 m/s 772 mmHg 85%
    21:00 -2°C° 0 mm 2 m/s 772 mmHg 85%
    22:00 -2°C° 0 mm 2 m/s 772 mmHg 85%
    23:00 -2°C° 0 mm 2 m/s 772 mmHg 85%
    Mostrar mais